[[{"header":{"parameterUnit":"m.s-1","parameterCategory":1,"la1":30.2991,"la2":30.254,"lo1":-89.0895,"lo2":-89.0444,"dy":0.0017,"dx":0.0017,"nx":28,"ny":28,"refTime":"2023-08-13T21:00:00:Z","depth":0,"parameterNumber":2,"parameterNumberName":"U-component_of_WINDS"},"data":[0,0,0,0,0,0,0,0,0,0,0,0,0,0,0,0,0,0,0,0,0,0,0,0,0,0,0,0,0,0,0,0,0,0,0,0,0,0,0,0,0,0,0,0,0,0,0,0,0,0,0,0,0,0,0,0,0,0,3.4346,3.4346,0,3.4392,3.4393,3.4393,3.4336,3.4334,3.4332,3.433,3.4384,3.4387,3.439,0,0,0,0,0,0,0,0,0,0,0,0,0,3.4216,3.4219,3.4346,3.4346,3.4347,3.4392,3.4393,3.4393,3.4337,3.4334,3.4331,3.4329,3.4383,3.4387,3.4391,0,0,0,0,0,0,0,0,0,0,0,0,0,3.4269,3.422,3.4346,3.4324,3.4322,3.4392,3.4393,3.4393,3.4337,3.4334,3.4331,3.4328,3.4381,3.4386,3.4391,3.4486,0,0,3.4407,3.4409,0,0,0,0,0,0,0,0,3.4266,3.4273,3.4327,3.4326,3.4324,3.4355,3.4366,3.4425,3.4338,3.4332,3.433,3.4326,3.4377,3.4382,3.4398,3.4489,3.4491,3.4407,3.441,3.4413,3.4414,0,0,0,0,0,0,0,3.4262,3.4271,3.4364,3.4327,3.4326,3.4314,3.4318,3.4377,3.4372,3.4332,3.4328,3.4334,3.4376,3.4393,3.4399,3.4492,3.4407,3.4412,3.4415,3.4417,3.4668,3.4671,0,0,0,0,0,0,3.426,3.4268,3.4363,3.4366,3.4286,3.4319,3.4324,3.4348,3.4371,3.4371,3.4337,3.4331,3.4386,3.4393,3.4401,3.4517,3.4412,3.4417,3.442,3.4664,3.4668,3.4672,0,0,0,0,0,0,3.4257,3.4269,3.4361,3.4316,3.4327,3.4325,3.4353,3.4351,3.4368,3.4374,3.4374,3.4355,3.4384,3.4394,3.4466,3.4518,3.442,3.4424,3.466,3.4665,3.467,3.4748,0,0,0,0,0,0,3.4254,3.4268,3.4302,3.4317,3.4329,3.4423,3.4356,3.4354,3.4377,3.437,3.4392,3.4392,3.4382,3.4459,3.4471,3.4523,3.4428,3.4655,3.4662,3.4669,3.4741,3.4756,3.4768,0,0,0,0,0,3.425,3.4323,3.4304,3.4316,3.4372,3.4426,3.4434,3.4419,3.4381,3.4417,3.4421,3.4392,3.451,3.4467,3.448,3.4535,3.4652,3.466,3.4668,3.4735,3.4753,3.4768,0,0,0,0,0,0,3.4316,3.4324,3.4304,3.4384,3.4405,3.4416,3.4461,3.4437,3.4471,3.4464,3.4446,3.4451,3.4529,3.4539,3.449,3.463,3.4575,3.4586,3.4621,3.4638,3.4651,3.4649,3.4432,0,0,0,0,0,3.4339,3.4381,3.4387,3.4457,3.4468,3.4463,3.4486,3.4473,3.4495,3.4504,3.4513,3.4538,3.4581,3.4609,3.4649,3.4741,3.4748,3.4786,3.4799,3.481,3.4821,3.4875,3.4894,3.4699,3.4699,3.4699,0,0,3.4389,3.4399,3.4426,3.447,3.4485,3.4532,3.4471,3.4522,3.4557,3.4512,3.4582,3.459,3.4616,3.47,3.4738,3.4711,3.4876,3.4821,3.4829,3.4834,3.4886,3.4904,3.492,3.4704,3.4703,3.4703,0,0,3.4504,3.4514,3.4575,3.4591,3.4614,3.461,3.4625,3.4641,3.4645,3.4714,3.4682,3.4725,3.4798,3.4819,3.484,3.4966,3.4942,3.4979,3.5051,3.5104,3.5119,3.5133,3.5182,3.5199,3.4989,3.499,3.499,0,3.4564,3.463,3.461,3.4664,3.4687,3.4647,3.4711,3.4728,3.4763,3.4781,3.4749,3.4842,3.4857,3.4947,3.4978,3.4995,3.5014,3.4978,3.5118,3.5132,3.5144,3.5191,3.5209,3.4994,3.4994,3.4993,3.4993,0,3.4705,3.4752,3.4799,3.4833,3.4861,3.4919,3.4911,3.4942,3.4927,3.4928,3.5001,3.5017,3.5061,3.5081,3.5066,3.5171,3.5153,3.512,3.5065,3.5168,3.5211,3.5229,3.5001,3.4999,3.4998,3.4997,0,0,3.4864,3.4887,3.4905,3.4922,3.4945,3.4982,3.5041,3.5082,3.5111,3.5137,3.5188,3.5252,3.5222,3.5245,3.5234,3.5279,3.5384,3.5241,3.5242,3.527,3.5504,3.5532,3.5552,3.5366,3.537,3.5372,3.5503,0,3.4982,3.5082,3.5067,3.5164,3.521,3.5174,3.5225,3.5247,3.525,3.5291,3.5294,3.5342,3.5296,3.5311,3.5354,3.5362,3.5431,3.5351,3.5418,3.5421,3.5416,3.5574,3.5603,3.5726,3.552,3.5523,3.5525,0,3.5134,3.5165,3.5267,3.5286,3.5304,3.5351,3.539,3.5428,3.5453,3.5452,3.5479,3.546,3.5522,3.5464,3.5552,3.5499,3.5525,3.5533,3.5537,3.5546,3.5481,3.5591,3.5764,3.5784,3.5551,3.5549,3.5547,0,3.5245,3.5312,3.5383,3.5397,3.542,3.5455,3.5466,3.5488,3.5515,3.5549,3.5567,3.5609,3.5633,3.5667,3.5661,3.5618,3.5753,3.5693,3.5757,3.5758,3.5789,3.5788,3.5973,3.5801,3.58,3.58,3.5799,0,3.538,3.5445,3.5433,3.5477,3.555,3.5533,3.5606,3.5614,3.5634,3.5681,3.5652,3.5697,3.5684,3.573,3.5726,3.5802,3.5812,3.5816,3.5815,3.5821,3.5821,3.584,3.5833,3.5805,3.5804,3.5803,3.5802,0,3.5518,3.5511,3.5587,3.5602,3.5608,3.5661,3.5676,3.5719,3.5719,3.578,3.5793,3.5795,3.5848,3.5845,3.5904,3.5902,3.5997,3.5984,3.5988,3.5987,3.6053,3.6048,3.626,3.6289,3.6094,3.6096,3.6097,0,3.5606,3.5655,3.5676,3.5705,3.5719,3.5765,3.5793,3.5779,3.5809,3.5843,3.5883,3.5933,3.5972,3.6059,3.6068,3.6114,3.6104,3.6175,3.6111,3.6117,3.611,3.6109,3.6116,3.6189,3.6191,3.6193,3.6194,0,3.5766,3.5761,3.5801,3.5841,3.5874,3.5905,3.5933,3.5959,3.5948,3.5985,3.6038,3.6068,3.6129,3.6181,3.6226,3.624,3.6218,3.6214,3.6232,3.6241,3.6243,3.6247,3.6027,3.621,3.6209,3.6207,3.6207,3.6206,3.5885,3.5928,3.595,3.5997,3.6016,3.6044,3.6086,3.6092,3.6135,3.6183,3.6172,3.6233,3.626,3.6318,3.6337,3.6387,3.6362,3.6387,3.6394,3.6402,3.6411,3.6232,3.6394,3.6394,3.6394,3.6393,3.6393,0,3.6046,3.6059,3.6102,3.6142,3.618,3.6152,3.6182,3.6217,3.627,3.6296,3.6335,3.6398,3.6449,3.6461,3.651,3.6548,3.6539,3.6562,3.6561,3.6566,3.6428,3.641,3.6568,3.6568,3.6568,3.6568,3.6568,3.6568,3.6135,3.6209,3.6207,3.6291,3.6303,3.6362,3.6382,3.6409,3.643,3.6501,3.6542,3.6549,3.6572,3.6622,3.6669,3.6671,3.6693,3.672,3.672,3.6592,3.6575,3.6558,3.654,3.6724,3.6724,3.6853,3.6854,3.6855]},{"header":{"parameterUnit":"m.s-1","parameterCategory":1,"la1":30.2991,"la2":30.254,"lo1":-89.0895,"lo2":-89.0444,"dy":0.0017,"dx":0.0017,"nx":28,"ny":28,"refTime":"2023-08-13T21:00:00:Z","depth":0,"parameterNumber":3,"parameterNumberName":"V-component_of_WINDS"},"data":[0,0,0,0,0,0,0,0,0,0,0,0,0,0,0,0,0,0,0,0,0,0,0,0,0,0,0,0,0,0,0,0,0,0,0,0,0,0,0,0,0,0,0,0,0,0,0,0,0,0,0,0,0,0,0,0,0,0,1.5771,1.5772,0,1.5868,1.5869,1.587,1.5876,1.5875,1.5874,1.5873,1.5971,1.5974,1.5978,0,0,0,0,0,0,0,0,0,0,0,0,0,1.5588,1.5591,1.5771,1.5772,1.5774,1.5868,1.5869,1.587,1.5877,1.5875,1.5874,1.5873,1.597,1.5974,1.5978,0,0,0,0,0,0,0,0,0,0,0,0,0,1.5674,1.5592,1.5771,1.5788,1.5791,1.5868,1.5869,1.5871,1.5877,1.5875,1.5874,1.5872,1.5968,1.5974,1.5979,1.6045,0,0,1.5995,1.5998,0,0,0,0,0,0,0,0,1.5669,1.5681,1.5784,1.5787,1.579,1.5859,1.584,1.5929,1.5877,1.5844,1.5873,1.5871,1.5935,1.5943,1.5964,1.605,1.6054,1.5996,1.5999,1.6001,1.6003,0,0,0,0,0,0,0,1.5663,1.5677,1.5809,1.5786,1.5789,1.579,1.58,1.5857,1.5897,1.5847,1.5848,1.5859,1.5936,1.5959,1.5967,1.6055,1.5996,1.6001,1.6004,1.6006,1.6194,1.6196,0,0,0,0,0,0,1.5654,1.5672,1.5806,1.5812,1.5724,1.5794,1.5806,1.5838,1.5897,1.5904,1.586,1.5859,1.5951,1.596,1.597,1.6048,1.6001,1.6007,1.601,1.6193,1.6195,1.6197,0,0,0,0,0,0,1.565,1.5666,1.5802,1.5742,1.576,1.5799,1.5835,1.5841,1.5864,1.5907,1.5914,1.5877,1.595,1.5963,1.6025,1.6052,1.6009,1.6014,1.6191,1.6193,1.6196,1.6207,0,0,0,0,0,0,1.5645,1.5665,1.5692,1.5743,1.5763,1.5857,1.5837,1.5844,1.5874,1.5873,1.5924,1.5931,1.595,1.6017,1.6031,1.6059,1.6018,1.6188,1.6192,1.6195,1.6204,1.6209,1.6214,0,0,0,0,0,1.5638,1.5691,1.5693,1.5709,1.5797,1.5859,1.587,1.5891,1.5876,1.5902,1.5929,1.593,1.6047,1.6024,1.6039,1.6069,1.6187,1.6191,1.6195,1.6202,1.6208,1.6214,0,0,0,0,0,0,1.5643,1.5699,1.5701,1.5772,1.5811,1.586,1.5894,1.5897,1.5941,1.5938,1.5961,1.5972,1.6033,1.6058,1.6031,1.6133,1.6115,1.6122,1.6115,1.6122,1.6127,1.6119,1.6023,0,0,0,0,0,1.5652,1.5698,1.5744,1.5803,1.5822,1.5854,1.5882,1.5894,1.5935,1.5951,1.5983,1.6021,1.6066,1.6096,1.614,1.6208,1.6217,1.6236,1.624,1.6244,1.625,1.6283,1.6291,1.621,1.621,1.6209,0,0,1.5672,1.5708,1.5736,1.5804,1.5836,1.5881,1.5868,1.5918,1.5951,1.5959,1.6019,1.6043,1.6087,1.6152,1.6182,1.6174,1.6274,1.6249,1.6252,1.6255,1.6288,1.6296,1.6303,1.6212,1.6212,1.6211,0,0,1.573,1.5763,1.5814,1.5845,1.5892,1.5913,1.5925,1.5973,1.5989,1.605,1.6055,1.6094,1.6173,1.6203,1.6229,1.6294,1.6295,1.6308,1.6333,1.6366,1.6372,1.6378,1.6398,1.6406,1.6314,1.6314,1.6314,0,1.5748,1.5818,1.5839,1.5888,1.5917,1.5925,1.5974,1.6003,1.6062,1.6081,1.6071,1.6167,1.6198,1.6267,1.6283,1.6305,1.6317,1.6302,1.637,1.6376,1.6381,1.6401,1.6409,1.6315,1.6315,1.6315,1.6315,0,1.5836,1.5885,1.592,1.5975,1.6008,1.6057,1.6084,1.6114,1.6122,1.6143,1.6203,1.624,1.629,1.6308,1.6317,1.6378,1.6371,1.6365,1.6347,1.639,1.6408,1.6416,1.6316,1.6316,1.6316,1.6315,0,0,1.5902,1.5966,1.5978,1.6002,1.6053,1.609,1.6138,1.6187,1.6211,1.6251,1.6289,1.6354,1.6348,1.6377,1.6389,1.6418,1.6464,1.6409,1.641,1.6415,1.6529,1.6531,1.654,1.6465,1.6467,1.6468,1.6524,0,1.5964,1.605,1.6068,1.6142,1.6185,1.6191,1.6233,1.6267,1.6287,1.6325,1.6348,1.6391,1.6382,1.6399,1.6428,1.6452,1.6486,1.6448,1.6499,1.6501,1.6486,1.655,1.6554,1.6605,1.6532,1.6533,1.6534,0,1.6048,1.6088,1.6166,1.6208,1.6226,1.6263,1.6307,1.6345,1.6383,1.6395,1.6426,1.6434,1.6482,1.6462,1.6526,1.6499,1.6521,1.6535,1.6538,1.6542,1.6519,1.6553,1.6622,1.6629,1.6546,1.6545,1.6544,0,1.6084,1.6158,1.6213,1.6233,1.6284,1.6309,1.6332,1.6368,1.6395,1.6433,1.645,1.6494,1.6517,1.6549,1.6568,1.6552,1.6629,1.6612,1.6639,1.6638,1.6654,1.6652,1.6725,1.6671,1.6671,1.6671,1.6671,0,1.615,1.6196,1.6229,1.6263,1.6314,1.6334,1.6383,1.6405,1.6437,1.6473,1.6482,1.6516,1.654,1.6576,1.6591,1.664,1.6651,1.6661,1.6664,1.6659,1.6657,1.6672,1.6668,1.6673,1.6673,1.6672,1.6672,0,1.6198,1.6222,1.6282,1.6325,1.6336,1.6372,1.6408,1.6439,1.6459,1.6504,1.6516,1.6546,1.6589,1.6611,1.6665,1.6675,1.6729,1.6731,1.6716,1.6717,1.6742,1.6738,1.6825,1.6836,1.6777,1.6777,1.6778,0,1.6238,1.6273,1.6319,1.6344,1.6367,1.6407,1.6434,1.6454,1.6482,1.6526,1.6551,1.6594,1.663,1.6698,1.6723,1.6764,1.6765,1.6793,1.6771,1.6764,1.6762,1.6759,1.6761,1.6796,1.6797,1.6797,1.6797,0,1.6305,1.6314,1.6353,1.6395,1.6426,1.646,1.6494,1.6514,1.6539,1.6568,1.6612,1.664,1.6693,1.6735,1.6777,1.6798,1.6801,1.6804,1.6812,1.6806,1.6795,1.6798,1.6724,1.6802,1.6801,1.6801,1.6801,1.68,1.6348,1.6379,1.6415,1.6457,1.6484,1.6514,1.6545,1.6567,1.6604,1.665,1.6659,1.6704,1.6738,1.6794,1.6816,1.685,1.6844,1.6857,1.6859,1.6861,1.6861,1.6791,1.6858,1.6858,1.6858,1.6858,1.6858,0,1.6413,1.6436,1.6474,1.652,1.6552,1.6553,1.6589,1.6615,1.6655,1.6687,1.6721,1.6769,1.6809,1.6836,1.6876,1.6898,1.69,1.6907,1.6905,1.6909,1.6866,1.6854,1.6905,1.6905,1.6905,1.6905,1.6905,1.6905,1.645,1.6501,1.6514,1.6577,1.6599,1.6644,1.6664,1.6691,1.6716,1.6769,1.6802,1.682,1.6849,1.6891,1.6926,1.6933,1.6946,1.6953,1.6959,1.6918,1.6913,1.6908,1.6897,1.6956,1.6956,1.7,1.7,1.7001]}]]